TimeCDT,TemperatureF,Dew PointF,Humidity,Sea Level PressureIn,VisibilityMPH,Wind Direction,Wind SpeedMPH,Gust SpeedMPH,PrecipitationIn,Events,Conditions,WindDirDegrees,DateUTC
12:53 AM,73.9,63.0,68,30.12,10.0,South,11.5,-,N/A,,Clear,180,2013-07-18 05:53:00
1:53 AM,73.0,63.0,71,30.11,10.0,South,11.5,-,N/A,,Clear,180,2013-07-18 06:53:00
2:53 AM,72.0,62.1,71,30.10,10.0,South,11.5,21.9,N/A,,Clear,190,2013-07-18 07:53:00
3:53 AM,69.1,62.1,78,30.09,10.0,South,9.2,-,N/A,,Clear,190,2013-07-18 08:53:00
4:53 AM,66.9,62.1,84,30.08,10.0,South,5.8,-,N/A,,Clear,190,2013-07-18 09:53:00
5:53 AM,66.0,62.1,87,30.07,10.0,South,9.2,-,N/A,,Clear,190,2013-07-18 10:53:00
6:53 AM,66.9,63.0,87,30.06,10.0,SSW,6.9,-,N/A,,Clear,200,2013-07-18 11:53:00
7:53 AM,69.1,64.0,84,30.05,10.0,SSW,10.4,-,N/A,,Clear,200,2013-07-18 12:53:00
8:53 AM,75.0,64.9,71,30.06,10.0,SSW,16.1,28.8,N/A,,Clear,200,2013-07-18 13:53:00
9:53 AM,78.1,64.9,64,30.04,10.0,SSW,12.7,28.8,N/A,,Clear,200,2013-07-18 14:53:00
10:53 AM,81.0,64.0,56,30.03,10.0,SSW,16.1,29.9,N/A,,Clear,210,2013-07-18 15:53:00
11:53 AM,82.9,64.0,53,30.00,10.0,SSW,19.6,34.5,N/A,,Clear,210,2013-07-18 16:53:00
12:53 PM,86.0,64.0,48,29.98,10.0,SSW,21.9,29.9,N/A,,Clear,210,2013-07-18 17:53:00
1:53 PM,87.1,63.0,44,29.96,10.0,SSW,19.6,25.3,N/A,,Clear,210,2013-07-18 18:53:00
2:53 PM,89.1,62.1,40,29.94,10.0,SSW,21.9,31.1,N/A,,Clear,210,2013-07-18 19:53:00
3:53 PM,91.0,61.0,36,29.92,10.0,SSW,18.4,32.2,N/A,,Clear,210,2013-07-18 20:53:00
4:53 PM,91.0,61.0,36,29.91,10.0,South,13.8,27.6,N/A,,Partly Cloudy,190,2013-07-18 21:53:00
5:53 PM,91.0,60.1,35,29.88,10.0,SSW,13.8,26.5,N/A,,Partly Cloudy,210,2013-07-18 22:53:00
6:53 PM,90.0,60.1,37,29.87,10.0,South,21.9,27.6,N/A,,Partly Cloudy,190,2013-07-18 23:53:00
7:53 PM,88.0,61.0,40,29.86,10.0,SSW,12.7,-,N/A,,Clear,210,2013-07-19 00:53:00
8:53 PM,84.9,60.1,43,29.86,10.0,South,9.2,-,N/A,,Clear,180,2013-07-19 01:53:00
9:53 PM,75.9,63.0,64,29.89,10.0,SE,4.6,-,N/A,,Clear,140,2013-07-19 02:53:00
10:53 PM,75.0,63.0,66,29.90,10.0,SE,4.6,-,N/A,,Clear,140,2013-07-19 03:53:00
11:53 PM,75.0,62.1,64,29.90,10.0,South,6.9,-,N/A,,Clear,190,2013-07-19 04:53:00